[[{"header":{"parameterUnit":"m.s-1","parameterCategory":1,"la1":30.2991,"la2":30.254,"lo1":-89.0895,"lo2":-89.0444,"dy":0.0017,"dx":0.0017,"nx":28,"ny":28,"refTime":"2023-09-21T03:00:00:Z","depth":0,"parameterNumber":2,"parameterNumberName":"U-component_of_WINDS"},"data":[0,0,0,0,0,0,0,0,0,0,0,0,0,0,0,0,0,0,0,0,0,0,0,0,0,0,0,0,0,0,0,0,0,0,0,0,0,0,0,0,0,0,0,0,0,0,0,0,0,0,0,0,0,0,0,0,0,0,-2.6406,-2.6406,0,-2.6403,-2.6403,-2.6403,-2.6338,-2.6337,-2.6335,-2.6333,-2.6333,-2.6335,-2.6336,0,0,0,0,0,0,0,0,0,0,0,0,0,-2.6358,-2.636,-2.6406,-2.6406,-2.6406,-2.6403,-2.6403,-2.6403,-2.6339,-2.6336,-2.6334,-2.6333,-2.6332,-2.6334,-2.6336,0,0,0,0,0,0,0,0,0,0,0,0,0,-2.637,-2.636,-2.6406,-2.6373,-2.637,-2.6403,-2.6403,-2.6403,-2.6339,-2.6336,-2.6334,-2.6332,-2.6332,-2.6334,-2.6336,-2.6401,0,0,-2.6344,-2.6345,0,0,0,0,0,0,0,0,-2.6369,-2.6372,-2.6378,-2.6375,-2.6372,-2.6368,-2.6386,-2.6403,-2.634,-2.6351,-2.6333,-2.633,-2.6347,-2.6348,-2.6353,-2.6401,-2.6401,-2.6344,-2.6345,-2.6346,-2.6347,0,0,0,0,0,0,0,-2.6369,-2.6371,-2.6405,-2.6378,-2.6374,-2.636,-2.6359,-2.6389,-2.6363,-2.635,-2.6345,-2.6345,-2.6345,-2.6351,-2.6353,-2.6401,-2.6344,-2.6346,-2.6347,-2.6348,-2.6507,-2.651,0,0,0,0,0,0,-2.6372,-2.6371,-2.6405,-2.6405,-2.6364,-2.6363,-2.6361,-2.6372,-2.6363,-2.6359,-2.6348,-2.6342,-2.6348,-2.635,-2.6352,-2.643,-2.6346,-2.6348,-2.635,-2.6504,-2.6508,-2.6511,0,0,0,0,0,0,-2.6371,-2.6375,-2.6405,-2.6387,-2.6389,-2.6366,-2.6379,-2.6373,-2.6379,-2.6361,-2.6356,-2.6358,-2.6346,-2.6349,-2.639,-2.6429,-2.6349,-2.6352,-2.6501,-2.6505,-2.6509,-2.6586,0,0,0,0,0,0,-2.637,-2.6376,-2.6399,-2.6388,-2.639,-2.6442,-2.6381,-2.6375,-2.6383,-2.6377,-2.637,-2.6366,-2.6344,-2.6387,-2.6393,-2.6431,-2.6353,-2.6497,-2.6503,-2.6508,-2.658,-2.6592,-2.6603,0,0,0,0,0,-2.6369,-2.642,-2.64,-2.6405,-2.6419,-2.6444,-2.6446,-2.6419,-2.6387,-2.6411,-2.64,-2.6367,-2.6424,-2.6392,-2.6398,-2.6437,-2.6495,-2.6501,-2.6508,-2.6574,-2.659,-2.6602,0,0,0,0,0,0,-2.6436,-2.6418,-2.6396,-2.6445,-2.6447,-2.6433,-2.6462,-2.6435,-2.6447,-2.644,-2.6407,-2.6406,-2.6454,-2.6449,-2.6414,-2.6502,-2.6454,-2.6462,-2.6503,-2.6517,-2.6528,-2.6529,-2.6355,0,0,0,0,0,-2.6457,-2.6478,-2.6461,-2.6506,-2.6508,-2.6486,-2.6495,-2.6475,-2.6476,-2.6476,-2.6468,-2.6471,-2.649,-2.6503,-2.6519,-2.6579,-2.6578,-2.6609,-2.662,-2.663,-2.6638,-2.6672,-2.6687,-2.6532,-2.6532,-2.6531,0,0,-2.6499,-2.6492,-2.6507,-2.6519,-2.6518,-2.6543,-2.6486,-2.6513,-2.6532,-2.648,-2.652,-2.6514,-2.6515,-2.6567,-2.6589,-2.6565,-2.668,-2.6638,-2.6646,-2.6648,-2.668,-2.6695,-2.6708,-2.6536,-2.6535,-2.6534,0,0,-2.659,-2.6585,-2.6624,-2.6625,-2.6624,-2.6609,-2.6619,-2.661,-2.6605,-2.6643,-2.6606,-2.6628,-2.6661,-2.6665,-2.6671,-2.6767,-2.6738,-2.6773,-2.6834,-2.6868,-2.688,-2.6891,-2.6928,-2.6941,-2.678,-2.6781,-2.6781,0,-2.6643,-2.6677,-2.6647,-2.6678,-2.6686,-2.6641,-2.6681,-2.6683,-2.6689,-2.6696,-2.6668,-2.6711,-2.6708,-2.6762,-2.6786,-2.6791,-2.6803,-2.6774,-2.688,-2.6891,-2.6901,-2.6936,-2.6949,-2.6785,-2.6784,-2.6784,-2.6784,0,-2.6744,-2.6769,-2.68,-2.6807,-2.6819,-2.6854,-2.6831,-2.6847,-2.6826,-2.6815,-2.6857,-2.6853,-2.6869,-2.688,-2.686,-2.6932,-2.6918,-2.6886,-2.6837,-2.692,-2.6953,-2.6966,-2.6791,-2.679,-2.6788,-2.6787,0,0,-2.6876,-2.6868,-2.688,-2.6884,-2.6882,-2.6901,-2.6936,-2.6952,-2.6967,-2.6973,-2.7003,-2.7033,-2.7005,-2.7012,-2.6992,-2.7022,-2.7103,-2.6987,-2.6987,-2.7011,-2.7186,-2.7211,-2.7227,-2.7083,-2.7086,-2.7087,-2.7187,0,-2.6966,-2.7024,-2.6999,-2.7061,-2.7085,-2.7044,-2.7075,-2.7078,-2.7069,-2.709,-2.708,-2.7104,-2.7063,-2.7068,-2.7095,-2.7087,-2.7138,-2.7079,-2.7113,-2.7115,-2.7116,-2.7243,-2.7269,-2.7363,-2.7199,-2.7201,-2.7203,0,-2.7077,-2.7089,-2.7153,-2.7149,-2.7159,-2.7187,-2.7201,-2.722,-2.7225,-2.7216,-2.7226,-2.7201,-2.7237,-2.7189,-2.724,-2.7201,-2.7214,-2.7212,-2.7215,-2.7219,-2.7165,-2.7252,-2.7392,-2.7407,-2.7222,-2.722,-2.7219,0,-2.7171,-2.7202,-2.7245,-2.7249,-2.7245,-2.7267,-2.7267,-2.7268,-2.728,-2.7293,-2.7302,-2.7319,-2.7329,-2.7344,-2.7325,-2.7291,-2.7381,-2.733,-2.7377,-2.7378,-2.7399,-2.7398,-2.7545,-2.7404,-2.7404,-2.7404,-2.7404,0,-2.7274,-2.7315,-2.7287,-2.7314,-2.736,-2.7333,-2.738,-2.7375,-2.7377,-2.7404,-2.737,-2.7396,-2.7368,-2.7393,-2.7378,-2.7425,-2.7429,-2.7426,-2.7422,-2.743,-2.7431,-2.7438,-2.7432,-2.7407,-2.7407,-2.7406,-2.7405,0,-2.7386,-2.7368,-2.7413,-2.7406,-2.7406,-2.7441,-2.7436,-2.7462,-2.7452,-2.7486,-2.7493,-2.7477,-2.7505,-2.7487,-2.7514,-2.7505,-2.7567,-2.7553,-2.7566,-2.7563,-2.7612,-2.7609,-2.777,-2.7792,-2.7636,-2.7638,-2.7639,0,-2.7453,-2.7485,-2.7482,-2.7498,-2.75,-2.7525,-2.7538,-2.7513,-2.7528,-2.7537,-2.7563,-2.7587,-2.7605,-2.7652,-2.7644,-2.7666,-2.7653,-2.7709,-2.7656,-2.7665,-2.7657,-2.7656,-2.7661,-2.7719,-2.7721,-2.7723,-2.7724,0,-2.7577,-2.7568,-2.7587,-2.7605,-2.7621,-2.7634,-2.7644,-2.7659,-2.7635,-2.7654,-2.7682,-2.7696,-2.7725,-2.7751,-2.777,-2.7771,-2.7745,-2.7741,-2.7753,-2.7762,-2.777,-2.7769,-2.7597,-2.7737,-2.7736,-2.7735,-2.7734,-2.7733,-2.767,-2.7697,-2.7701,-2.7725,-2.773,-2.7741,-2.7766,-2.776,-2.7782,-2.7804,-2.7788,-2.7822,-2.7829,-2.7852,-2.7857,-2.7885,-2.7862,-2.788,-2.7885,-2.789,-2.7898,-2.7764,-2.7888,-2.7887,-2.7887,-2.7887,-2.7886,0,-2.7794,-2.7795,-2.7817,-2.7833,-2.7853,-2.7826,-2.7836,-2.7855,-2.7885,-2.7893,-2.7913,-2.7947,-2.7972,-2.7968,-2.7992,-2.8015,-2.8004,-2.8022,-2.8021,-2.8023,-2.7915,-2.7903,-2.8031,-2.8031,-2.8031,-2.8031,-2.8031,-2.8031,-2.7861,-2.7906,-2.7898,-2.7947,-2.7947,-2.798,-2.7989,-2.8,-2.8007,-2.8046,-2.8067,-2.8064,-2.8068,-2.8093,-2.8116,-2.8115,-2.8126,-2.815,-2.8144,-2.8044,-2.803,-2.8016,-2.8005,-2.8152,-2.8152,-2.8249,-2.825,-2.8251]},{"header":{"parameterUnit":"m.s-1","parameterCategory":1,"la1":30.2991,"la2":30.254,"lo1":-89.0895,"lo2":-89.0444,"dy":0.0017,"dx":0.0017,"nx":28,"ny":28,"refTime":"2023-09-21T03:00:00:Z","depth":0,"parameterNumber":3,"parameterNumberName":"V-component_of_WINDS"},"data":[0,0,0,0,0,0,0,0,0,0,0,0,0,0,0,0,0,0,0,0,0,0,0,0,0,0,0,0,0,0,0,0,0,0,0,0,0,0,0,0,0,0,0,0,0,0,0,0,0,0,0,0,0,0,0,0,0,0,1.7712,1.7712,0,1.7653,1.7652,1.7651,1.7621,1.7621,1.7621,1.7621,1.7555,1.7554,1.7552,0,0,0,0,0,0,0,0,0,0,0,0,0,1.7795,1.7793,1.7712,1.7712,1.7711,1.7653,1.7652,1.7651,1.7621,1.7621,1.7621,1.7621,1.7556,1.7554,1.7552,0,0,0,0,0,0,0,0,0,0,0,0,0,1.7749,1.7793,1.7712,1.7689,1.7686,1.7653,1.7652,1.7651,1.7621,1.7621,1.7621,1.7621,1.7557,1.7554,1.7552,1.7536,0,0,1.7544,1.7543,0,0,0,0,0,0,0,0,1.7752,1.7746,1.7693,1.769,1.7687,1.7644,1.7657,1.7612,1.7621,1.7645,1.7621,1.7621,1.7585,1.758,1.7569,1.7533,1.753,1.7543,1.7542,1.7541,1.754,0,0,0,0,0,0,0,1.7755,1.7749,1.7689,1.7692,1.7689,1.768,1.7673,1.7649,1.7616,1.7643,1.7641,1.7635,1.7583,1.7571,1.7567,1.7529,1.7544,1.7541,1.754,1.7539,1.7477,1.7477,0,0,0,0,0,0,1.7763,1.7752,1.7691,1.7687,1.772,1.7678,1.7671,1.7658,1.7616,1.761,1.7635,1.7633,1.7576,1.757,1.7564,1.7543,1.7541,1.7538,1.7537,1.7477,1.7477,1.7477,0,0,0,0,0,0,1.7765,1.7758,1.7693,1.7719,1.771,1.7677,1.7663,1.7657,1.7645,1.761,1.7603,1.7629,1.7575,1.7568,1.7543,1.754,1.7537,1.7535,1.7477,1.7477,1.7477,1.75,0,0,0,0,0,0,1.7767,1.7759,1.7754,1.7719,1.7708,1.7675,1.7662,1.7656,1.7641,1.7639,1.7602,1.7596,1.7575,1.7547,1.7541,1.7536,1.7533,1.7477,1.7477,1.7477,1.7499,1.7501,1.7502,0,0,0,0,0,1.777,1.7762,1.7754,1.7746,1.7702,1.7675,1.7668,1.7645,1.7641,1.7635,1.7612,1.7597,1.7542,1.7545,1.7538,1.7532,1.7477,1.7477,1.7477,1.7499,1.7501,1.7502,0,0,0,0,0,0,1.7796,1.7757,1.7747,1.7728,1.7705,1.767,1.7661,1.7648,1.7625,1.7623,1.7594,1.7586,1.7564,1.7545,1.755,1.7514,1.7508,1.7506,1.7527,1.7528,1.753,1.7534,1.7531,0,0,0,0,0,1.78,1.7783,1.7749,1.7735,1.7724,1.7695,1.7682,1.7666,1.764,1.763,1.7605,1.758,1.7556,1.7541,1.7518,1.7497,1.7487,1.7489,1.749,1.7492,1.749,1.7476,1.7476,1.7476,1.7476,1.7476,0,0,1.7807,1.7783,1.7774,1.7739,1.772,1.7701,1.7687,1.7667,1.7652,1.7626,1.7602,1.7583,1.7552,1.7529,1.7518,1.7513,1.7488,1.7491,1.7492,1.749,1.7476,1.7476,1.7476,1.7476,1.7476,1.7476,0,0,1.781,1.7791,1.7777,1.7758,1.7728,1.7709,1.7705,1.7672,1.7658,1.7634,1.7614,1.7594,1.7555,1.7534,1.7518,1.7512,1.7497,1.7505,1.7511,1.7497,1.7497,1.7497,1.7494,1.7493,1.7503,1.7503,1.7503,0,1.7822,1.7794,1.7771,1.7753,1.7737,1.7714,1.7698,1.768,1.7644,1.7633,1.7629,1.7579,1.7557,1.7527,1.7526,1.7514,1.7508,1.7509,1.75,1.7499,1.7499,1.7495,1.7494,1.7505,1.7504,1.7504,1.7504,0,1.781,1.7791,1.7782,1.7749,1.7733,1.7716,1.7689,1.7674,1.766,1.764,1.7614,1.7586,1.7557,1.7548,1.7533,1.7517,1.7515,1.7506,1.7498,1.75,1.7496,1.7495,1.7506,1.7506,1.7505,1.7505,0,0,1.7828,1.7782,1.7779,1.7764,1.7729,1.7713,1.7694,1.7666,1.7654,1.7629,1.7612,1.7579,1.757,1.7552,1.7534,1.7522,1.7518,1.7514,1.7513,1.7515,1.7496,1.7503,1.7502,1.7508,1.7507,1.7507,1.7498,0,1.7825,1.7792,1.777,1.7745,1.7726,1.7703,1.7687,1.7663,1.7644,1.7623,1.7601,1.7578,1.7569,1.7557,1.7545,1.7521,1.7513,1.7521,1.7489,1.7489,1.7497,1.75,1.7507,1.75,1.7496,1.7496,1.7496,0,1.7818,1.7796,1.7769,1.7736,1.7727,1.7713,1.7684,1.7666,1.7637,1.7624,1.7604,1.7586,1.7563,1.7558,1.7525,1.7531,1.7516,1.7502,1.7501,1.7497,1.7492,1.7494,1.7497,1.7496,1.7494,1.7494,1.7494,0,1.7833,1.7795,1.7774,1.7762,1.7723,1.7713,1.7696,1.7668,1.7652,1.7627,1.7616,1.7588,1.7572,1.755,1.7524,1.7523,1.7494,1.7487,1.748,1.7481,1.7475,1.7476,1.7474,1.7467,1.7467,1.7467,1.7467,0,1.7832,1.7816,1.778,1.7767,1.7749,1.7722,1.7704,1.7685,1.766,1.7641,1.7619,1.7602,1.7569,1.7547,1.7527,1.7502,1.7495,1.7483,1.7477,1.7484,1.7486,1.7474,1.7474,1.7467,1.7467,1.7467,1.7467,0,1.7845,1.7821,1.7796,1.7761,1.7752,1.7739,1.7709,1.7694,1.7674,1.7651,1.7643,1.7611,1.7584,1.7556,1.7519,1.7505,1.7481,1.7474,1.7491,1.7488,1.7483,1.7484,1.7474,1.7471,1.7466,1.7466,1.7466,0,1.7846,1.7833,1.7797,1.7784,1.7768,1.7747,1.773,1.7704,1.7688,1.7654,1.7643,1.7615,1.7591,1.7549,1.7521,1.7492,1.7483,1.7482,1.7479,1.7486,1.7482,1.7483,1.7481,1.7483,1.7483,1.7483,1.7483,0,1.785,1.7838,1.7816,1.779,1.7772,1.775,1.7726,1.7716,1.7685,1.7667,1.764,1.7622,1.7585,1.7556,1.7524,1.7504,1.7488,1.7485,1.7481,1.7488,1.7498,1.7492,1.7493,1.7485,1.7485,1.7484,1.7484,1.7484,1.7856,1.7843,1.7816,1.7792,1.7772,1.775,1.7735,1.7713,1.769,1.7659,1.7644,1.7617,1.7587,1.7542,1.7523,1.75,1.7495,1.7491,1.749,1.7489,1.749,1.7503,1.7494,1.7494,1.7494,1.7494,1.7494,0,1.7857,1.7839,1.7817,1.7786,1.7767,1.7754,1.7728,1.7712,1.7689,1.7663,1.764,1.7608,1.758,1.755,1.752,1.7507,1.7499,1.75,1.7501,1.7496,1.7497,1.7502,1.7508,1.7508,1.7508,1.7508,1.7508,1.7508,1.7856,1.7834,1.7819,1.7786,1.7766,1.7741,1.7726,1.7706,1.7685,1.7651,1.7628,1.7609,1.7581,1.7549,1.7522,1.7514,1.7503,1.7507,1.7496,1.7497,1.7496,1.7495,1.75,1.7505,1.7505,1.7497,1.7497,1.7497]}]]